Weather History for Paso Robles, CA

Change the Weather History Date:

Monday, January 2, 2012

  Actual Average Record
Temperature  
Mean Temperature 60 °F 46 °F  
Max Temperature 79 °F 59 °F 76 °F (2001)
Min Temperature 35 °F 34 °F 16 °F (1976)
Degree Days  
Heating Degree Days 0 19  
Month to date heating degree days 0 38  
Since 1 July heating degree days 1098 1162  
Cooling Degree Days 452 0  
Month to date cooling degree days 452 0  
Year to date cooling degree days 452 0  
Growing Degree Days 10 (Base 50)    
Moisture  
Dew Point 33 °F    
Average Humidity 42    
Maximum Humidity 62    
Minimum Humidity 21    
Precipitation  
Precipitation 0.00 in 0.08 in 2.67 in (2006)
Month to date precipitation 0.00 0.17  
Year to date precipitation 0.00 0.17  
Since 1 July precipitation 2.81 4.16  
Sea Level Pressure  
Sea Level Pressure 30.24 in    
Wind  
Wind Speed 2 mph (WNW)    
Max Wind Speed 22 mph    
Max Gust Speed -    
Visibility 10 miles    
Events      
T = Trace of Precipitation, MM = Missing Value Source: NWS Daily Summary

Daily Weather History Graph

Daily Weather History Graph

Search for Another Location

Airport:

Trip Planner

Search our weather history database for the weather conditions in past years. The results will help you decide how hot, cold, wet, or windy it might be!

Date:

Astronomy

Jan. 02, 2012 Rise Set
Actual Time 7:12 AM PST 5:00 PM PST
Civil Twilight 6:44 AM PST 5:28 PM PST
Nautical Twilight 6:12 AM PST 6:00 PM PST
Astronomical Twilight 5:41 AM PST 6:31 PM PST
Moon 12:15 PM PST (1/2) 1:15 AM PST (1/2)
Length of Visible Light 10h 44m
Length of Day
9h 48m
Waxing Gibbous, 65% of the Moon is Illuminated
Jan 2
Waxing Gibbous
Jan 8
Full
Jan 16
Last Quarter
Jan 22
New
Jan 30
First Quarter

Hourly Weather History & Observations

Time (PST) Temp. Windchill Dew Point Humidity Pressure Visibility Wind Dir Wind Speed Gust Speed Precip Events Conditions
12:53 AM 42.1 °F - 30.9 °F 65% 30.20 in 6.0 mi Calm Calm - N/A   Haze
1:53 AM 42.1 °F - 28.9 °F 60% 30.20 in 10.0 mi Calm Calm - N/A   Clear
2:53 AM 48.9 °F - 32.0 °F 52% 30.21 in 10.0 mi Calm Calm - N/A   Clear
3:53 AM 43.0 °F - 30.0 °F 60% 30.21 in 10.0 mi Calm Calm - N/A   Clear
4:53 AM 45.0 °F 43.5 °F 30.0 °F 56% 30.22 in 10.0 mi SSE 3.5 mph - N/A   Clear
5:53 AM 41.0 °F - 27.0 °F 57% 30.23 in 10.0 mi Calm Calm - N/A   Clear
6:53 AM 41.0 °F - 27.0 °F 57% 30.27 in 10.0 mi Calm Calm - N/A   Clear
7:53 AM 51.8 °F - 30.2 °F 44% 30.28 in 10.0 mi SE 4.6 mph - N/A   Clear
8:53 AM 55.9 °F - 33.1 °F 42% 30.28 in 10.0 mi Calm Calm - N/A   Clear
9:53 AM 59.0 °F - 33.8 °F 39% 30.30 in 10.0 mi WNW 3.5 mph - N/A   Clear
11:53 AM 68.0 °F - 32.0 °F 26% 30.25 in 10.0 mi NW 5.8 mph - N/A   Clear
12:53 PM 73.0 °F - 32.0 °F 22% 30.22 in 10.0 mi North 4.6 mph - N/A   Clear
1:53 PM 73.0 °F - 37.0 °F 27% 30.19 in 10.0 mi Calm Calm - N/A   Clear
2:53 PM 79.0 °F - 36.0 °F 21% 30.19 in 10.0 mi NW 6.9 mph - N/A   Clear
3:53 PM 66.0 °F - 36.0 °F 33% 30.20 in 10.0 mi Calm Calm - N/A   Clear
4:53 PM 71.1 °F - 37.0 °F 29% 30.19 in 10.0 mi South 3.5 mph - N/A   Clear
5:53 PM 59.0 °F - 37.0 °F 44% 30.21 in 10.0 mi Calm Calm - N/A   Clear
6:53 PM 68.0 °F - 37.0 °F 32% 30.22 in 10.0 mi Calm Calm - N/A   Clear
7:53 PM 66.0 °F - 35.1 °F 32% 30.23 in 10.0 mi SE 4.6 mph - N/A   Clear
8:53 PM 50.0 °F - 36.0 °F 59% 30.26 in 10.0 mi WNW 4.6 mph - N/A   Clear
9:53 PM 54.0 °F - 37.0 °F 53% 30.28 in 10.0 mi NW 3.5 mph - N/A   Clear
10:53 PM 59.0 °F - 35.1 °F 41% 30.28 in 10.0 mi ESE 6.9 mph - N/A   Clear
11:53 PM 46.9 °F - 35.1 °F 63% 30.29 in 10.0 mi Calm Calm - N/A   Clear